Station DUKN7 - 8651370 - Duck Pier, NC Image indicating link to RSS feed of recent meteorological observations for station DUKN7


Conditions at DUKN7 as of
(6:00 am EDT)
1000 GMT on 06/23/2024:
     

Click on the graph icon in the table below to see a time series plot of the last five days of that observation.

5-day plot - Wind Direction Wind Direction (WDIR): SW ( 230 deg true )
5-day plot - Wind Speed Wind Speed (WSPD): 15.0 kts
5-day plot - Wind Gust Wind Gust (GST): 18.1 kts
5-day plot - Atmospheric Pressure Atmospheric Pressure (PRES):29.99 in
5-day plot - Pressure Tendency Pressure Tendency (PTDY):+0.00 in ( Steady )
5-day plot - Wind Speed at 10 Meters Wind Speed at 10 meters (WSPD10M): 15.5 kts
5-day plot - Wind Speed at 20 Meters Wind Speed at 20 meters (WSPD20M): 17.5 kts
5-day plot -  Wind Speed, Wind Gust and Atmospheric Pressure Combined plot of Wind Speed, Gust, and Air Pressure
NOS Water Level Observation Network Water Level
Previous observations
TIME
(EDT)
5-day plot - Wind Direction
WDIR
 
5-day plot - Wind Speed
WSPD
kts
5-day plot - Wind Gust
GST
kts
5-day plot - Wave Height
WVHT
ft
5-day plot - Dominant Wave Period
DPD
sec
5-day plot - Average Wave Period
APD
sec
5-day plot - Mean Wave Direction
MWD
 
5-day plot - Atmospheric Pressure
PRES
in
5-day plot - Pressure Tendency
PTDY
in
5-day plot - Air Temperature
ATMP
°F
5-day plot - Water Temperature
WTMP
°F
5-day plot - Dew Point
DEWP
°F
5-day plot - Salinity
SAL
psu
5-day plot - Visibility
VIS
nmi
5-day plot - Tide (above MLLW)
TIDE
ft
2024-06-23 05:54 am SW 15.0 19.0----29.99-------
2024-06-23 05:48 am SW 14.0 19.0----29.99- 78.1-----
2024-06-23 05:42 am SW 14.0 17.1----29.99- 78.1-----
2024-06-23 05:36 am SW 12.0 15.9----29.99- 78.1-----
2024-06-23 05:30 am SW 15.0 19.0----29.99- 78.1-----
2024-06-23 05:24 am SW 11.1 17.1----29.99- 78.1-----
2024-06-23 05:18 am SW 12.0 17.1----29.99- 78.3-----
2024-06-23 05:12 am SW 14.0 15.9----29.99- 78.1-----
2024-06-23 05:06 am SW 11.1 17.1----29.99- 78.3-----
2024-06-23 05:00 am SW 13.0 18.1----29.99- 78.1-----
2024-06-23 04:54 am SW 12.0 17.1----29.99- 78.3-----
2024-06-23 04:48 am SW 14.0 18.1----29.99- 78.3-----
2024-06-23 04:42 am SW 12.0 15.9----29.99- 78.3-----
2024-06-23 04:36 am SW 11.1 15.9----29.99- 78.4-----
2024-06-23 04:30 am SW 12.0 15.9----29.99- 78.4-----
2024-06-23 04:24 am SW 15.0 18.1----29.99- 78.6-----
2024-06-23 04:18 am SW 14.0 19.0----29.99- 78.6-----
2024-06-23 04:12 am SW 14.0 18.1----29.99- 78.6-----
2024-06-23 04:06 am SW 13.0 18.1----29.99- 78.6-----
2024-06-23 04:00 am SW 13.0 19.0----29.99-0.02 78.6-----
2024-06-23 03:54 am SW 15.0 19.0----29.99- 78.8-----
2024-06-23 03:48 am SW 15.0 19.0----29.99- 78.8-----
2024-06-23 03:42 am SW 15.0 18.1----29.99- 79.0-----
2024-06-23 03:36 am SW 14.0 19.0----29.99- 79.0-----
2024-06-23 03:30 am SW 15.0 21.0----29.99- 79.0-----
2024-06-23 03:24 am SW 15.9 19.0----29.99- 79.2-----
2024-06-23 03:18 am SW 14.0 19.0----29.99- 79.3-----
2024-06-23 03:12 am SW 15.9 21.0----29.99- 79.3-----
2024-06-23 03:06 am SW 17.1 21.0----29.99- 79.5-----
2024-06-23 03:00 am SW 15.9 21.0----29.99-0.02 79.5-----
2024-06-23 02:54 am SW 15.0 20.0----29.99- 79.5-----
2024-06-23 02:48 am SW 17.1 21.0----29.99- 79.5-----
2024-06-23 02:42 am SW 17.1 22.0----30.00- 79.7-----
2024-06-23 02:36 am SW 15.9 21.0----30.00- 79.7-----
2024-06-23 02:30 am SW 19.0 21.0----30.00- 79.9-----
2024-06-23 02:24 am SW 15.0 22.0----30.00- 79.9-----
2024-06-23 02:18 am SW 14.0 22.0----30.00- 79.9-----
2024-06-23 02:12 am SW 17.1 22.0----30.00- 80.1-----
2024-06-23 02:06 am SW 19.0 22.9----30.00- 80.2-----
2024-06-23 02:00 am--------- 80.2-----
2024-06-23 01:54 am--------- 80.2-----
2024-06-23 01:48 am SW 19.0 22.9----30.01- 80.2-----
2024-06-23 01:42 am SW 17.1 22.0----30.01- 80.2-----
2024-06-23 01:36 am SW 19.0 22.9----30.01- 80.4-----
2024-06-23 01:30 am-------30.01-------
2024-06-23 01:24 am-------30.01-------
2024-06-23 01:18 am SW 15.9 20.0----30.01- 80.8-----
2024-06-23 01:12 am SW 14.0 18.1----30.01- 80.4-----
2024-06-23 01:06 am SW 14.0 18.1----30.01- 80.6-----
2024-06-23 01:00 amSSW 11.1 17.1----30.01+0.00 80.6-----
2024-06-23 12:54 amSSW 12.0 17.1----30.01- 80.4-----
2024-06-23 12:48 amSSW 12.0 17.1----30.01- 80.2-----
2024-06-23 12:42 amSSW 14.0 18.1----30.01- 80.6-----
2024-06-23 12:36 amSSW 13.0 15.9----30.01- 80.4-----
2024-06-23 12:30 amSSW 13.0 17.1----30.01- 80.4-----
2024-06-23 12:24 amSSW 14.0 19.0----30.01- 80.6-----
2024-06-23 12:18 amSSW 14.0 18.1----30.01-------
2024-06-23 12:12 amSSW 13.0 19.0----30.01-------
2024-06-23 12:06 amSSW 15.0 19.0----30.01-------
2024-06-23 12:00 amSSW 13.0 17.1----30.01+0.00 80.4-----
2024-06-22 11:54 pmSSW 14.0 17.1----30.01- 80.8-----
2024-06-22 11:48 pmSSW 15.0 17.1----30.01- 80.6-----
2024-06-22 11:42 pmSSW 14.0 15.9----30.01- 80.8-----
2024-06-22 11:36 pmSSW 13.0 15.9----30.01- 80.6-----
2024-06-22 11:30 pmSSW 12.0 15.9----30.01- 80.8-----
2024-06-22 11:24 pmSSW 12.0 15.0----30.02- 80.8-----
2024-06-22 11:18 pmSSW 11.1 15.0----30.02- 80.6-----
2024-06-22 11:12 pmSSW 11.1 17.1----30.02- 80.6-----
2024-06-22 11:06 pmSSW 12.0 15.9----30.02- 81.0-----
2024-06-22 11:00 pm-------30.01+0.02------
2024-06-22 10:54 pm-------30.02-------
2024-06-22 10:48 pm-------30.01-------
2024-06-22 10:42 pm-------30.01-------
2024-06-22 10:36 pm-------30.01-------
2024-06-22 10:30 pm S 12.0 15.0----30.01- 81.0-----
2024-06-22 10:24 pmSSW 13.0 17.1----30.01- 80.6-----
2024-06-22 10:18 pm S 15.0 18.1----30.01- 81.1-----
2024-06-22 10:12 pm S 13.0 17.1----30.01- 81.1-----
2024-06-22 10:06 pm S 12.0 19.0----30.01- 81.0-----
2024-06-22 10:00 pm S 15.0 18.1----30.01+0.01------
2024-06-22 09:54 pm S 15.0 18.1----30.01-------
2024-06-22 09:48 pm S 13.0 18.1----30.01- 81.5-----
2024-06-22 09:42 pm S 14.0 18.1----30.01- 81.5-----
2024-06-22 09:36 pm S 13.0 17.1----30.01- 81.1-----
2024-06-22 09:30 pm S 12.0 18.1----30.01-------
2024-06-22 09:24 pm S 13.0 15.9----30.00-------
2024-06-22 09:18 pm S 13.0 18.1----30.00- 81.7-----
2024-06-22 09:12 pm S 14.0 18.1----30.00- 82.0-----
2024-06-22 09:06 pm S 13.0 17.1----30.00- 81.7-----
2024-06-22 09:00 pm S 12.0 15.9----30.01+0.00 81.7-----
2024-06-22 08:54 pm S 14.0 18.1----30.00- 81.9-----
2024-06-22 08:48 pm S 15.0 18.1----30.00- 81.9-----
2024-06-22 08:42 pm S 15.0 17.1----30.00- 81.9-----
2024-06-22 08:36 pm S 14.0 17.1----30.00- 81.9-----
2024-06-22 08:30 pm S 13.0 17.1----30.00- 81.5-----
2024-06-22 08:24 pm S 15.0 15.9----30.00- 82.2-----
2024-06-22 08:18 pm S 15.0 17.1----30.00- 82.4-----
2024-06-22 08:12 pm S 15.9 18.1----30.00- 82.4-----
2024-06-22 08:06 pm S 15.9 19.0----30.00- 82.8-----
2024-06-22 08:00 pm S 14.0 18.1----29.99-0.02 82.8-----
2024-06-22 07:54 pm S 15.9 19.0----29.99- 83.1-----
2024-06-22 07:48 pm S 14.0 18.1------------
2024-06-22 07:42 pm S 15.9 18.1------------
2024-06-22 07:36 pm S 15.9 18.1------------
2024-06-22 07:30 pm S 15.9 18.1----29.99- 83.7-----
2024-06-22 07:24 pm S 14.0 18.1----29.99- 83.1-----
2024-06-22 07:18 pm S 14.0 18.1----29.99- 83.7-----
2024-06-22 07:00 pm S 15.0 17.1----29.99-0.05------
2024-06-22 06:54 pm S 15.9 19.0----29.99-------
2024-06-22 06:48 pmSSE 13.0 15.0----30.00- 80.2-----
2024-06-22 06:42 pm SE 13.0 15.0----30.00- 76.8-----
2024-06-22 06:36 pmSSE 13.0 15.0----30.00- 78.8-----
2024-06-22 06:30 pm SE 13.0 15.0----30.00- 78.3-----
2024-06-22 06:24 pm SE 13.0 15.0----30.00- 77.5-----
2024-06-22 06:18 pm SE 14.0 15.9----30.00- 77.9-----
2024-06-22 06:12 pm SE 14.0 15.9----30.00- 78.4-----
2024-06-22 06:06 pm SE 15.0 15.9----30.00- 78.1-----
2024-06-22 06:00 pm SE 15.9 17.1----30.00-0.06 78.3-----
2024-06-22 05:54 pm SE 17.1 17.1----30.00- 78.3-----
2024-06-22 05:48 pm SE 15.0 17.1----30.01- 78.3-----
2024-06-22 05:42 pm SE 15.9 18.1----30.01- 78.4-----
2024-06-22 05:36 pm SE 15.9 17.1----30.01- 78.3-----
2024-06-22 05:30 pm SE 15.9 18.1----30.01-------
2024-06-22 05:24 pm SE 18.1 18.1----30.01-------
2024-06-22 05:18 pm SE 18.1 19.0----30.01- 78.1-----
2024-06-22 05:12 pm SE 18.1 19.0----30.01- 77.9-----
2024-06-22 05:06 pm SE 18.1 19.0----30.01- 77.9-----
2024-06-22 05:00 pm SE 18.1 19.0----30.02-0.06 77.7-----
2024-06-22 04:54 pm SE 18.1 19.0----30.02- 77.4-----
2024-06-22 04:48 pm SE 15.9 17.1----30.03-------
2024-06-22 04:42 pm SE 17.1 19.0----30.03-------
2024-06-22 04:36 pm SE 18.1 19.0----30.03-------
2024-06-22 04:30 pm--------- 77.2-----
2024-06-22 04:24 pm--------- 77.0-----
2024-06-22 04:18 pm SE 15.0 18.1----30.03-------
2024-06-22 04:12 pm SE 17.1 18.1----30.03-------
2024-06-22 04:06 pm SE 13.0 14.0----30.04-------
2024-06-22 04:00 pmSSE 12.0 15.0----30.04-0.06 74.3-----
2024-06-22 03:54 pmSSE 15.0 18.1----30.04- 76.1-----
2024-06-22 03:48 pm SE 15.9 17.1----30.04- 76.3-----
2024-06-22 03:42 pmSSE 14.0 15.0----30.04- 75.4-----
2024-06-22 03:36 pmSSE 12.0 15.9----30.05- 75.7-----
2024-06-22 03:30 pm SE 15.0 15.9----30.05- 76.6-----
2024-06-22 03:24 pm SE 15.0 15.9----30.06- 76.6-----
2024-06-22 03:18 pm SE 15.0 15.9----30.06- 76.8-----
2024-06-22 03:12 pm SE 14.0 15.9----30.06- 76.3-----
2024-06-22 03:06 pm SE 12.0 15.0----30.06- 74.8-----
2024-06-22 03:00 pmSSE 14.0 15.0----30.06-0.05 75.4-----
2024-06-22 02:54 pmSSE 13.0 14.0----30.06-------
2024-06-22 02:48 pm SE 12.0 14.0----30.07-------
2024-06-22 02:42 pm SE 14.0 15.0----30.07-------
2024-06-22 02:36 pmSSE 13.0 15.0----30.07-------
2024-06-22 02:30 pm SE 13.0 14.0----30.07-------
2024-06-22 02:24 pm SE 14.0 14.0----30.07-------
2024-06-22 02:18 pm SE 13.0 14.0----30.08-------
2024-06-22 02:12 pm SE 14.0 15.0----30.08-------
2024-06-22 02:06 pmSSE 14.0 15.0----30.08-------
2024-06-22 02:00 pm S 8.0 9.9----30.08-0.05 84.9-----
2024-06-22 01:54 pm S 5.1 8.9----30.08- 84.4-----
2024-06-22 01:48 pmSSW 7.0 9.9----30.09- 84.4-----
2024-06-22 01:42 pmSSW 7.0 8.9----30.09- 84.2-----
2024-06-22 01:36 pm S 6.0 8.9----30.09- 83.7-----
2024-06-22 01:30 pm S 6.0 7.0----30.09- 83.8-----
2024-06-22 01:24 pm SE 2.9 5.1----30.09- 82.9-----
2024-06-22 01:18 pm- 0.0 2.9----30.10- 83.1-----
2024-06-22 01:12 pmSSE 1.9 5.1----30.10- 82.6-----
2024-06-22 01:06 pmESE 4.1 6.0----30.10- 82.2-----
2024-06-22 01:00 pm S 5.1 8.9----30.10-0.03 82.8-----
2024-06-22 12:54 pmSSW 5.1 8.0----30.10- 81.3-----
2024-06-22 12:48 pm SE 2.9 5.1----30.11- 81.5-----
2024-06-22 12:42 pm SE 4.1 6.0----30.11- 80.2-----
2024-06-22 12:36 pm SE 5.1 6.0----30.11- 80.8-----
2024-06-22 12:30 pmSSE 2.9 5.1----30.11- 81.1-----
2024-06-22 12:24 pm SE 4.1 6.0----30.11- 82.0-----
2024-06-22 12:18 pmSSE 2.9 5.1----30.11- 81.0-----
2024-06-22 12:12 pm SW 2.9 6.0----30.11- 82.4-----
2024-06-22 12:06 pm SW 5.1 7.0----30.11- 81.9-----
2024-06-22 12:00 pm SW 5.1 8.0----30.11-0.03 82.0-----
2024-06-22 11:54 am SW 6.0 8.0----30.11- 81.7-----
2024-06-22 11:48 amSSW 6.0 7.0----30.11-------
2024-06-22 11:42 amSSW 6.0 8.0----30.11-------
2024-06-22 11:36 am SW 6.0 8.9----30.12-------
2024-06-22 11:30 amWSW 7.0 8.9----30.12- 81.3-----
2024-06-22 11:24 amWSW 6.0 8.0----30.12- 81.0-----
2024-06-22 11:18 amWSW 7.0 8.9----30.13- 81.0-----
2024-06-22 11:12 amWSW 5.1 7.0----30.13- 80.6-----
2024-06-22 11:06 amWSW 6.0 8.0----30.13- 81.0-----
2024-06-22 11:00 am SW 8.0 8.9----30.13-0.01 80.4-----
2024-06-22 10:54 am SW 7.0 9.9----30.13- 80.2-----
2024-06-22 10:48 am SW 7.0 8.9----30.13- 80.6-----
2024-06-22 10:42 amWSW 6.0 8.0----30.13- 80.4-----
2024-06-22 10:36 amWSW 5.1 8.9----30.13- 80.2-----
2024-06-22 10:30 amWSW 6.0 8.9----30.13- 80.1-----
2024-06-22 10:24 amWSW 6.0 8.9----30.13- 80.2-----
2024-06-22 10:18 am--------- 80.2-----
2024-06-22 10:12 am--------- 80.1-----
2024-06-22 10:06 am--------- 79.9-----
2024-06-22 10:00 amWSW 7.0 8.0----30.13-0.01------
2024-06-22 09:54 amWSW 6.0 8.9----30.13-------
2024-06-22 09:48 amWSW 7.0 8.9----30.14- 79.7-----
2024-06-22 09:42 amWSW 7.0 8.9----30.14- 79.5-----
2024-06-22 09:36 am W 7.0 8.0----30.14- 79.3-----
2024-06-22 09:30 am W 8.0 9.9----30.14- 79.5-----
2024-06-22 09:24 am W 7.0 9.9----30.14- 79.5-----
2024-06-22 09:18 am W 8.0 9.9----30.14- 79.2-----
2024-06-22 09:12 amWNW 8.9 9.9----30.14- 79.0-----
2024-06-22 09:06 am W 8.0 9.9----30.14- 79.0-----
2024-06-22 09:00 am W 8.0 9.9----30.14+0.00 79.0-----
2024-06-22 08:54 am W 8.0 9.9----30.14- 78.8-----
2024-06-22 08:48 am W 8.0 9.9----30.14-------
2024-06-22 08:42 am W 8.9 11.1----30.14-------
2024-06-22 08:36 am W 8.9 11.1----30.14-------
2024-06-22 08:30 am W 9.9 11.1------------
2024-06-22 08:24 am W 8.0 11.1------------
2024-06-22 08:18 am W 8.0 12.0----30.14- 78.4-----
2024-06-22 08:12 am W 9.9 11.1----30.14- 78.3-----
2024-06-22 08:06 am W 7.0 9.9----30.14- 78.3-----
2024-06-22 08:00 am-------30.14+0.00------
2024-06-22 07:54 am-------30.14-------
2024-06-22 07:48 amWSW 8.0 11.1----30.14- 77.9-----
2024-06-22 07:42 amWSW 8.9 11.1----30.14- 77.7-----
2024-06-22 07:36 am W 8.0 9.9----30.15- 77.5-----
2024-06-22 07:30 amWSW 8.0 9.9----30.15- 77.5-----
2024-06-22 07:24 amWSW 7.0 9.9----30.15- 77.4-----
2024-06-22 07:18 am W 7.0 8.9----30.15-------
2024-06-22 07:12 am W 7.0 9.9----30.15-------
2024-06-22 07:06 amWSW 8.0 9.9----30.15-------
2024-06-22 07:00 amWSW 7.0 9.9----30.15- 77.2-----
2024-06-22 06:54 amWSW 8.0 9.9----30.15- 77.0-----
2024-06-22 06:48 amWSW 8.0 9.9----30.15- 77.0-----
2024-06-22 06:42 amWSW 8.0 9.9----30.15- 77.0-----
2024-06-22 06:36 amWSW 8.0 9.9----30.15- 77.0-----
2024-06-22 06:30 amWSW 8.0 8.9----30.15- 77.0-----
2024-06-22 06:24 amWSW 7.0 8.9----30.15- 77.0-----
2024-06-22 06:18 amWSW 8.0 9.9----30.14- 77.0-----
2024-06-22 06:12 amWSW 8.9 9.9----30.15- 77.0-----
2024-06-22 06:06 amWSW 8.0 9.9----30.15- 76.8-----
2024-06-22 06:00 am SW 8.0 9.9----30.14-0.01 77.0-----
2024-06-22 05:54 am SW 7.0 8.9----30.14- 76.8-----